Jackson, MI

6:04 AM EST on November 14, 2019 (GMT -0500)
Jackson County-Reynolds

Weather History for KJXN - June, 2019

Change the Weather History Date:

Friday, June 14, 2019

  Actual Average Record
Temperature  
Mean Temperature 59 °F 67 °F  
Max Temperature 74 °F 79 °F 94 °F (1988)
Min Temperature 44 °F 56 °F 37 °F (1978)
Degree Days  
Heating Degree Days 6 2  
Month to date heating degree days 46 39  
Since 1 June heating degree days 46 39  
Since 1 July heating degree days 6682 6641  
Cooling Degree Days 0 4  
Month to date cooling degree days 17 41  
Year to date cooling degree days 27 78  
Since 1 June cooling degree days 17 41  
Growing Degree Days 9 (Base 50)    
Moisture  
Dew Point 45 °F    
Average Humidity 63    
Maximum Humidity 93    
Minimum Humidity 33    
Precipitation  
Precipitation 0.00 in 0.12 in 1.61 in (2015)
Month to date precipitation 2.93 1.53  
Year to date precipitation 14.94 12.13  
Sea Level Pressure  
Sea Level Pressure 29.99 in    
Wind  
Wind Speed 10 mph (SW)    
Max Wind Speed 21 mph    
Max Gust Speed 29 mph    
Visibility 10 miles    
Events      
T = Trace of Precipitation, MM = Missing Value Source: NWS Daily Summary

Daily Weather History Graph

Daily Weather History Graph

Search for Another Location

Airport or City:

Astronomy

Jun. 14, 2019 Rise Set
Actual Time 6:00 AM EDT 9:15 PM EDT
Civil Twilight 5:26 AM EDT 9:50 PM EDT
Nautical Twilight 4:41 AM EDT 10:34 PM EDT
Astronomical Twilight 3:47 AM EDT 11:29 PM EDT
Moon 6:33 PM EDT 4:22 AM EDT
Length of Visible Light 16h 24m
Length of Day
15h 14m
Waxing Gibbous, 92% of the Moon is Illuminated
Jun 14
Waxing Gibbous
Jun 17
Full
Jun 25
Last Quarter
Jul 2
New
Jul 9
First Quarter

Hourly Weather History & Observations

Time (EDT) Temp. Windchill Dew Point Humidity Pressure Visibility Wind Dir Wind Speed Gust Speed Precip Events Conditions
12:56 AM 48.9 °F - 43.0 °F 80% 29.96 in 10.0 mi WSW 4.6 mph - N/A   Mostly Cloudy
1:56 AM 48.9 °F - 44.1 °F 83% 29.96 in 10.0 mi WSW 6.9 mph - N/A   Mostly Cloudy
2:56 AM 48.9 °F - 42.1 °F 77% 29.98 in 10.0 mi WSW 5.8 mph - N/A   Scattered Clouds
3:56 AM 46.0 °F 44.8 °F 42.1 °F 86% 29.99 in 10.0 mi SW 3.5 mph - N/A   Clear
4:56 AM 45.0 °F - 42.1 °F 90% 30.00 in 10.0 mi Calm Calm - N/A   Clear
5:56 AM 46.0 °F 44.8 °F 43.0 °F 89% 30.02 in 10.0 mi SW 3.5 mph - N/A   Clear
6:56 AM 46.9 °F - 45.0 °F 93% 30.03 in 10.0 mi SW 3.5 mph - N/A   Clear
7:56 AM 52.0 °F - 48.0 °F 86% 30.04 in 10.0 mi SW 8.1 mph - N/A   Clear
8:56 AM 57.9 °F - 48.9 °F 72% 30.06 in 10.0 mi WSW 8.1 mph - N/A   Clear
9:56 AM 63.0 °F - 50.0 °F 63% 30.06 in 10.0 mi WSW 8.1 mph - N/A   Clear
10:56 AM 66.0 °F - 48.9 °F 54% 30.06 in 10.0 mi WSW 10.4 mph 20.7 mph N/A   Clear
11:56 AM 66.9 °F - 48.0 °F 51% 30.06 in 10.0 mi SW 12.7 mph 23.0 mph N/A   Clear
12:56 PM 69.1 °F - 46.9 °F 45% 30.05 in 10.0 mi SSW 17.3 mph 23.0 mph 0.00 in   Clear
1:56 PM 71.1 °F - 48.0 °F 44% 30.02 in 10.0 mi SSW 11.5 mph 21.9 mph 0.00 in   Clear
2:56 PM 70.0 °F - 48.0 °F 46% 29.99 in 10.0 mi SSW 12.7 mph 23.0 mph 0.00 in   Clear
3:56 PM 72.0 °F - 44.1 °F 37% 29.98 in 10.0 mi SW 17.3 mph 28.8 mph 0.00 in   Clear
4:56 PM 73.0 °F - 46.0 °F 38% 29.95 in 10.0 mi SSW 16.1 mph 23.0 mph 0.00 in   Clear
5:56 PM 73.0 °F - 45.0 °F 37% 29.94 in 10.0 mi SSW 11.5 mph 24.2 mph N/A   Clear
6:56 PM 73.0 °F - 43.0 °F 34% 29.91 in 10.0 mi South 16.1 mph 21.9 mph N/A   Clear
7:56 PM 70.0 °F - 41.0 °F 35% 29.91 in 10.0 mi South 13.8 mph - N/A   Clear
8:56 PM 69.1 °F - 43.0 °F 39% 29.90 in 10.0 mi South 9.2 mph - N/A   Clear
9:56 PM 66.9 °F - 44.1 °F 44% 29.89 in 10.0 mi South 9.2 mph - N/A   Clear